Temperature
23 22 22 22 28 28 27 26 27 26 26 25 24 24 24 24 24 22 19 19 18 18 18 18 18 18 18 18 18 18 18 18 18 18 18 18 18 18 18 18 18 18 18 18 18 18 18 18 18
22 22 22 26 29 27 26 27 26 26 25 24 24 24 24 23 21 20 19 18 18 18 18 18 18 18 18 18 18 18 18 18 18 18 18 18 18 18 18 18 18 18 18 18 18 18 18 18 18
22 22 26 29 28 27 26 27 26 25 25 24 24 24 23 22 21 20 19 18 18 18 18 18 18 18 18 18 18 18 18 18 18 18 18 18 18 18 18 18 18 18 18 18 18 18 18 18 18
23 25 28 29 28 27 27 27 26 26 25 24 24 23 22 20 20 19 18 18 18 18 18 17 18 18 18 18 18 18 18 18 18 18 18 18 18 18 18 18 18 18 18 18 18 18 18 18 18
24 29 30 29 28 28 28 27 27 27 26 25 25 24 21 20 20 19 19 19 19 19 18 17 18 18 18 18 18 18 18 18 18 18 18 18 18 18 18 18 18 18 18 18 18 18 18 18 18
29 31 30 28 28 28 28 27 26 26 25 25 25 24 21 20 19 19 19 19 19 19 18 18 18 18 18 18 18 18 18 18 18 18 18 18 18 18 18 18 18 18 18 18 18 18 18 18 18
30 31 30 29 28 28 28 27 27 26 26 25 25 24 22 20 20 19 19 19 19 19 18 18 18 18 18 18 18 18 18 18 18 18 18 18 18 18 18 18 18 18 18 18 18 18 18 18 18
29 31 30 30 28 28 27 27 26 26 25 24 24 24 22 20 20 19 19 19 19 19 18 18 18 18 18 17 18 18 18 18 18 18 18 18 18 18 18 18 18 18 18 18 18 18 18 18 18
29 31 30 30 29 28 28 27 26 25 25 24 24 24 22 20 20 20 20 19 19 18 18 19 18 18 18 18 17 17 18 18 18 18 18 18 17 17 17 17 18 18 18 18 18 18 18 18 18
31 31 30 30 30 29 28 27 26 26 26 24 23 22 21 20 20 20 20 20 19 19 19 18 18 18 18 18 18 17 18 17 17 17 17 17 17 18 18 18 18 18 18 18 18 18 18 18 18
31 31 30 30 29 29 28 27 27 27 27 25 24 22 21 21 21 21 20 20 19 19 19 19 18 18 18 18 18 18 18 17 17 17 17 17 17 18 18 18 18 18 18 18 18 18 18 18 18
31 31 30 30 29 29 28 28 27 27 26 25 23 22 21 21 21 21 21 20 19 19 19 19 18 18 18 18 18 18 18 18 18 17 18 18 18 18 18 18 18 18 18 17 18 17 17 17 17
31 30 29 29 29 28 28 28 27 26 25 24 23 22 22 22 21 21 20 20 19 19 19 18 18 18 18 18 18 18 18 18 18 18 18 18 18 18 18 18 18 18 18 18 18 17 17 17 17
31 30 30 29 29 28 28 28 27 26 25 24 23 23 23 22 22 21 20 20 19 19 19 18 18 18 18 18 18 18 18 18 18 18 18 18 18 18 18 18 18 18 18 18 18 17 17 17 17
30 31 30 30 29 29 29 28 28 26 25 24 24 23 23 22 22 21 21 20 20 19 19 18 18 18 18 18 18 18 18 18 18 18 18 18 18 18 18 18 18 18 18 18 18 18 17 17 17
31 31 30 30 30 29 29 28 28 26 25 25 24 23 23 22 22 21 21 20 20 19 19 19 19 18 18 18 18 18 18 18 18 18 18 18 18 18 18 18 18 18 18 18 18 18 17 17 17
31 31 31 30 30 30 30 29 28 26 26 26 25 24 23 23 22 21 21 20 20 19 19 19 18 18 18 18 18 18 18 18 18 18 18 18 18 18 18 18 18 18 18 18 18 18 18 17 17
31 31 31 30 30 30 30 30 29 27 27 26 25 25 24 23 22 22 21 20 20 19 19 19 18 18 18 18 18 18 18 18 18 18 18 18 18 18 18 18 18 18 18 18 18 18 18 17 17
32 31 31 30 30 30 30 30 29 28 27 27 26 25 25 24 23 22 21 20 20 19 19 19 19 18 18 18 18 18 18 18 18 18 18 18 18 18 18 18 18 18 18 18 18 18 17 17 17
32 31 31 30 30 30 30 30 30 29 28 27 26 26 25 24 23 22 21 20 20 20 19 19 19 19 19 18 18 18 18 18 18 18 18 18 18 18 18 18 18 18 18 18 18 17 17 17 17
31 31 31 30 30 30 30 30 30 29 28 27 26 26 26 25 24 22 21 21 20 20 20 19 19 19 19 18 18 18 18 18 18 18 18 18 18 18 18 18 18 18 18 18 17 17 17 17 17
31 32 31 30 30 30 30 30 30 30 29 28 27 26 26 25 24 23 22 21 21 20 20 20 19 19 19 19 18 18 18 19 18 18 18 18 18 18 18 18 18 18 18 18 17 17 17 17 17
31 31 31 31 31 31 31 30 31 30 29 29 28 27 27 26 25 24 23 22 21 21 20 20 20 19 19 19 19 18 19 18 18 18 18 18 18 18 18 18 18 18 17 18 17 17 17 17 17
31 30 30 30 31 30 30 30 31 31 30 30 30 28 27 26 25 24 23 22 21 21 20 20 20 20 19 19 19 19 18 18 18 18 18 18 18 17 17 17 17 17 17 17 17 17 17 17 17
31 30 29 29 30 30 31 30 31 32 32 31 30 29 27 26 25 24 23 22 21 21 21 20 20 20 19 19 19 19 19 18 18 18 18 18 18 17 17 17 17 17 17 17 17 17 17 16 17
31 31 30 29 30 31 30 30 32 32 31 30 29 28 27 26 26 25 24 22 22 21 21 20 20 20 20 19 19 19 19 18 18 18 18 18 18 18 17 17 17 17 17 17 17 16 16 16 16
31 31 32 31 31 30 31 31 32 31 31 30 29 29 28 27 26 25 24 23 22 22 21 21 20 20 20 20 19 19 19 19 18 18 18 18 18 17 17 17 17 17 17 17 17 16 16 16 16
32 32 31 31 29 30 30 31 31 31 31 31 30 29 28 27 26 25 24 23 23 22 21 21 20 20 20 20 19 19 19 19 18 18 18 18 18 17 17 17 17 17 17 17 17 16 16 16 16
30 30 31 31 31 30 30 31 33 31 31 31 30 29 28 27 26 25 24 23 22 22 21 21 20 20 20 20 19 19 19 19 18 18 18 18 18 17 17 17 17 17 17 17 17 16 16 16 16
31 31 31 30 29 30 31 31 32 32 32 31 30 29 28 27 26 25 24 23 22 22 21 21 21 20 20 20 19 19 19 19 18 18 18 18 18 17 17 17 17 17 16 16 16 16 16 16 15
Wind_Speed
14 11 6 4 2 7 13 9 8 8 7 8 8 7 9 10 8 7 5 5 5 6 8 8 10 11 12 13 13 13 14 14 15 15 14 15 15 15 16 15 15 15 16 15 16 17 17 17 16
10 7 5 2 4 10 11 10 11 10 8 7 8 8 10 10 9 7 6 5 5 6 8 10 11 11 12 12 13 14 14 14 14 14 14 14 15 15 16 15 15 15 15 15 16 17 17 16 15
7 6 2 3 10 11 11 10 10 9 8 6 7 8 7 8 8 6 7 6 6 7 9 11 11 12 12 12 12 13 14 13 14 14 14 14 14 15 15 15 15 15 15 15 15 16 15 14 14
5 4 1 7 14 13 11 9 8 8 8 7 7 8 8 8 6 8 9 8 8 8 9 12 10 12 12 12 12 12 13 13 13 13 13 14 14 15 15 15 14 14 14 14 14 14 14 13 12
5 0 6 12 14 11 10 8 6 8 7 8 9 11 10 8 9 11 9 8 8 9 10 12 11 11 11 12 12 12 13 13 13 13 13 13 13 13 13 14 14 14 14 13 13 13 12 11 11
2 1 8 12 12 10 9 7 7 9 10 9 10 11 8 8 10 9 9 8 8 9 10 12 11 11 11 11 12 12 12 12 12 12 12 11 12 12 12 12 13 13 13 12 12 11 12 10 9
2 6 10 12 11 10 8 7 7 9 9 8 7 10 9 9 9 9 9 8 8 8 8 8 10 10 10 11 11 11 11 11 11 11 10 10 11 11 11 12 12 12 12 11 11 11 11 10 9
2 3 9 10 10 10 8 8 8 9 9 8 5 7 9 10 9 9 9 8 7 7 7 7 8 9 8 10 11 10 10 10 10 10 10 9 10 11 10 11 11 10 10 10 10 10 10 9 8
2 4 9 10 9 9 8 8 8 8 10 8 9 10 12 12 10 9 9 8 7 6 5 6 7 7 7 9 10 9 10 9 8 9 9 6 7 9 10 12 11 9 9 9 9 9 8 8 8
1 7 11 8 8 10 9 8 8 7 9 10 11 12 13 11 10 9 8 8 7 6 6 6 6 6 6 6 7 6 7 7 6 7 6 6 6 6 8 12 9 8 8 8 8 7 7 6 6
4 8 9 8 8 9 9 8 6 7 8 9 11 13 12 11 9 8 7 7 7 6 6 6 6 5 5 5 4 4 5 5 6 6 5 5 4 5 6 6 8 8 7 6 8 6 4 3 3
7 7 7 8 8 8 9 8 7 7 9 10 12 13 12 10 8 8 7 6 6 5 5 5 5 4 4 3 4 4 4 4 4 5 4 4 3 3 3 3 3 3 4 4 3 3 3 3 3
7 8 8 8 8 8 8 8 8 9 10 11 12 12 11 10 8 7 6 6 6 5 5 5 4 4 3 3 1 3 3 3 4 4 4 3 2 2 3 2 2 2 2 3 3 3 3 2 2
7 9 9 8 8 8 8 8 7 9 11 12 12 11 10 9 8 7 6 5 5 5 5 5 4 4 3 3 2 2 3 3 3 3 3 2 2 2 2 2 2 1 1 2 2 3 2 1 2
9 9 8 7 6 7 7 7 7 10 11 11 11 10 9 8 7 6 6 5 5 5 5 5 4 4 3 3 2 3 2 3 3 3 3 2 2 2 1 1 1 2 2 2 1 2 1 2 2
8 7 6 6 6 6 5 6 9 11 11 11 10 10 9 8 7 6 6 5 5 6 6 4 4 4 4 2 1 2 1 2 2 2 3 2 2 1 0 1 1 1 2 2 1 1 1 1 1
8 5 4 6 6 6 5 5 9 11 11 10 10 10 9 9 8 7 6 6 6 6 6 6 4 3 3 3 2 2 2 1 1 2 2 2 2 1 0 1 1 1 1 1 1 2 1 1 1
6 4 4 4 6 6 5 4 9 11 11 10 10 9 9 9 8 8 7 7 6 6 6 6 5 4 3 3 2 2 2 1 1 1 2 1 1 1 1 1 1 0 0 0 0 0 1 1 1
5 4 3 3 4 6 6 5 8 11 11 11 10 10 10 9 9 8 8 7 7 7 7 6 5 5 4 2 2 2 2 1 1 1 2 1 1 1 1 1 1 1 0 1 1 1 2 2 2
7 7 5 4 4 5 5 6 7 10 12 12 11 11 10 10 10 9 9 9 8 8 7 7 7 6 5 3 1 1 1 1 1 1 2 1 1 1 0 1 1 1 0 0 1 1 2 1 2
9 8 5 4 5 6 5 7 8 10 11 11 11 11 11 11 11 11 11 10 9 9 9 7 7 6 5 4 3 2 2 2 2 2 1 1 0 0 2 1 2 1 1 1 1 1 2 2 2
9 6 6 6 7 5 6 4 7 10 12 13 13 13 13 12 12 12 12 11 11 10 9 8 8 7 6 5 4 3 2 1 1 1 1 1 0 0 1 1 1 1 1 1 1 1 1 2 1
6 6 7 7 7 6 7 6 5 9 11 13 14 14 14 13 13 12 12 12 11 10 9 9 8 7 6 5 5 4 3 1 1 1 2 1 1 0 1 1 1 1 1 1 2 1 2 1 2
8 8 6 7 8 8 6 7 4 7 9 11 13 14 14 14 13 13 12 12 11 10 10 9 9 7 7 6 5 4 3 2 1 1 1 2 1 0 1 1 1 1 1 1 1 1 1 2 2
12 11 7 8 8 7 4 7 4 3 6 8 11 13 13 13 14 14 14 13 12 12 11 10 9 8 7 6 5 5 4 3 3 2 2 2 0 1 1 1 1 1 1 1 1 1 1 1 1
16 15 10 7 7 5 5 6 3 3 5 7 9 11 13 13 13 14 14 13 12 12 11 11 10 8 8 7 5 5 4 4 2 2 2 1 1 0 1 0 0 1 1 1 1 1 1 1 1
15 15 11 9 8 6 5 5 4 5 7 9 10 11 13 13 13 13 13 13 13 13 12 11 10 9 8 7 6 5 4 3 2 2 2 1 0 0 1 0 1 1 1 1 1 1 1 1 2
11 12 9 10 8 8 7 7 5 8 10 11 11 12 12 13 13 13 12 12 12 12 12 11 10 9 8 8 6 5 5 4 3 2 1 0 1 1 1 1 1 1 1 1 1 0 1 1 1
12 12 10 10 10 9 7 4 2 7 8 10 11 11 12 13 13 13 12 12 12 12 12 11 10 9 8 8 7 5 5 5 4 3 2 2 1 2 1 1 0 1 1 1 1 1 1 1 1
15 15 14 11 9 9 9 3 5 6 7 8 10 11 11 12 13 13 13 12 12 12 12 11 10 10 9 8 8 7 6 5 5 4 3 2 2 2 2 1 1 1 1 1 1 1 1 1 1
Wind_Direction
166 174 201 232 202 75 65 61 65 67 63 61 61 62 63 49 44 79 87 81 79 80 83 84 75 85 89 89 89 91 94 96 101 102 103 104 107 108 108 107 110 113 116 117 121 123 123 123 123
168 182 222 249 51 72 66 63 66 63 78 84 76 73 73 65 62 93 100 89 89 84 84 81 80 82 87 89 89 92 93 93 98 100 102 104 105 105 107 108 108 110 113 115 118 121 122 122 121
176 219 275 51 55 60 69 70 77 82 79 74 78 65 61 70 76 88 101 110 100 88 85 84 81 81 83 86 89 93 93 92 96 99 102 103 105 107 108 110 110 111 113 113 114 117 120 119 120
207 216 111 69 68 63 72 81 91 91 80 73 87 84 75 65 73 93 107 107 100 97 92 89 84 84 81 82 87 92 95 94 98 100 101 102 104 106 108 110 111 114 114 113 115 117 119 121 123
245 273 83 76 73 72 75 78 73 78 80 83 87 95 86 74 90 104 111 108 100 96 95 94 87 84 82 81 82 88 93 95 98 99 99 100 102 104 106 108 112 114 115 115 116 117 118 120 123
234 51 73 76 79 79 79 77 81 84 88 88 94 96 87 98 103 108 110 106 98 97 98 100 98 90 85 83 83 84 89 94 96 99 100 100 102 103 107 110 111 113 115 116 116 117 116 118 119
12 58 74 81 87 84 77 80 82 89 90 85 91 95 104 108 109 111 106 101 96 96 98 103 108 106 102 93 87 85 87 92 96 98 100 102 101 102 107 111 111 110 110 112 116 116 116 117 118
336 77 82 81 84 86 96 91 84 87 89 91 86 98 116 119 121 116 112 106 100 98 100 100 100 102 111 108 97 92 91 93 100 99 99 106 111 112 118 123 112 111 111 111 116 117 118 120 124
269 78 76 75 82 98 113 106 96 92 102 90 80 91 113 124 126 122 117 111 104 100 101 102 102 101 101 102 107 113 110 108 122 115 111 121 117 118 130 106 112 114 114 115 116 122 128 139 144
35 69 72 72 83 106 115 108 114 118 109 105 103 104 117 129 130 125 119 118 116 114 113 105 100 99 101 100 107 111 111 109 106 101 107 107 100 101 107 115 121 122 124 128 126 132 155 189 155
75 78 86 92 95 109 116 110 115 116 108 117 126 131 135 136 135 129 121 119 119 124 118 116 110 109 108 109 112 102 101 105 107 100 102 98 107 113 113 125 134 138 149 144 140 161 159 147 122
101 92 96 100 110 116 113 113 111 97 95 115 128 136 140 141 136 131 127 127 125 123 118 116 116 111 97 98 111 117 111 110 103 104 95 102 97 93 98 108 112 132 130 118 132 131 122 117 116
115 106 106 111 118 116 117 111 109 107 109 122 131 140 144 143 137 132 126 127 129 130 127 120 116 111 116 115 116 104 95 98 100 90 91 84 101 93 97 88 85 94 105 134 130 116 114 123 133
121 121 119 119 121 131 127 120 123 123 131 135 143 149 151 148 143 138 140 140 141 142 136 132 135 127 122 128 123 106 111 110 91 93 88 85 87 79 95 113 97 94 111 89 101 117 127 129 110
137 133 131 132 136 142 147 132 134 140 146 147 151 154 156 158 155 155 155 154 151 148 142 144 147 137 137 138 143 128 131 121 110 107 97 93 104 102 103 108 131 109 110 116 142 135 138 153 149
167 171 148 143 156 167 204 121 140 155 160 158 159 161 166 170 173 168 164 163 159 152 148 153 149 142 144 138 141 126 107 97 105 103 101 96 87 100 154 95 97 116 136 142 147 178 156 126 165
194 188 146 149 173 181 207 132 146 167 173 168 170 171 174 175 181 179 175 170 165 163 160 160 157 152 147 144 151 148 121 105 118 100 87 96 103 98 142 87 88 172 166 176 223 117 144 146 143
189 183 167 159 170 195 205 161 157 176 185 180 178 178 180 182 182 179 180 173 170 170 169 169 168 163 164 163 156 153 143 154 135 106 90 85 103 76 337 110 82 246 153 212 312 138 173 178 163
209 209 190 157 166 202 211 195 177 183 192 191 187 185 185 187 179 178 179 178 175 174 174 174 174 165 173 177 179 161 153 149 137 131 103 99 17 39 333 8 88 290 41 297 251 220 186 167 156
214 216 198 166 175 215 221 220 191 190 198 198 194 191 190 185 179 179 182 180 181 179 178 177 178 173 182 168 177 178 145 177 150 113 108 102 57 352 31 18 336 44 62 258 260 236 250 213 196
219 224 216 196 186 207 230 220 196 192 199 200 203 201 197 192 187 184 186 185 184 184 185 182 179 178 184 179 181 164 167 198 157 157 153 129 99 22 1 7 358 344 300 30 279 254 253 239 220
218 211 212 201 212 212 226 245 188 189 195 200 203 203 200 196 192 188 186 188 188 186 183 180 180 181 183 190 194 191 188 176 149 176 123 131 126 356 360 18 17 341 0 26 286 48 288 267 251
213 188 205 215 233 248 224 257 188 182 200 200 199 200 200 195 192 190 188 186 188 186 182 179 179 184 186 195 192 203 202 180 171 169 127 188 127 344 1 28 18 353 2 28 4 349 309 294 293
167 172 189 219 237 242 233 251 224 192 208 199 193 193 195 193 189 188 186 183 184 183 182 179 179 185 189 196 195 201 196 196 184 197 173 205 163 169 43 52 18 352 15 32 355 316 273 322 321
193 200 207 215 224 233 206 242 250 200 193 194 189 186 186 188 187 186 185 184 184 184 184 181 180 184 187 192 194 193 195 198 205 223 200 248 222 161 89 14 4 5 17 342 333 313 329 318 306
210 219 229 234 231 218 194 237 225 175 184 185 182 179 179 182 185 186 186 184 184 184 183 181 180 183 184 185 187 187 196 209 202 218 264 249 281 19 71 73 13 359 345 347 353 314 3 1 315
208 223 240 245 249 245 213 221 218 189 186 181 178 174 177 180 180 181 183 185 184 184 185 183 180 181 182 180 178 181 190 210 205 196 239 248 243 203 125 102 44 33 28 13 329 16 352 339 311
227 218 223 236 236 236 223 223 216 190 187 183 182 180 177 178 178 178 178 181 182 182 181 180 177 179 179 177 183 179 180 185 196 207 190 214 162 107 131 120 72 62 59 35 325 335 36 339 342
198 210 220 231 241 245 235 219 182 184 185 186 182 179 176 177 177 174 173 175 176 178 176 176 175 176 175 177 178 178 176 176 180 185 181 170 164 157 155 140 115 76 61 54 5 344 33 348 351
212 216 214 222 226 242 257 224 127 166 176 182 177 172 170 173 174 172 170 170 173 176 176 176 176 177 178 176 173 178 178 177 179 178 180 174 172 169 162 159 146 132 97 79 45 358 14 1 356
Height
1495 1495 1495 1497 1490 1490 1499 1499 1497 1499 1502 1506 1506 1505 1506 1508 1510 1520 1522 1519 1519 1518 1516 1514 1513 1512 1512 1512 1512 1513 1513 1513 1514 1515 1515 1516 1517 1518 1518 1519 1520 1521 1522 1522 1523 1525 1529 1532 1535
1496 1496 1498 1494 1488 1499 1505 1499 1501 1504 1506 1508 1509 1509 1509 1513 1517 1520 1521 1521 1521 1520 1519 1518 1516 1516 1516 1516 1516 1516 1516 1516 1517 1518 1518 1519 1520 1521 1521 1522 1523 1523 1523 1524 1525 1527 1530 1534 1537
1498 1498 1497 1489 1492 1501 1505 1502 1504 1507 1509 1509 1510 1512 1514 1518 1521 1522 1523 1523 1523 1522 1522 1520 1519 1519 1518 1518 1518 1518 1519 1519 1520 1520 1521 1522 1522 1523 1524 1525 1525 1526 1527 1528 1529 1531 1534 1536 1539
1500 1499 1495 1491 1499 1500 1501 1503 1506 1507 1510 1511 1511 1515 1519 1523 1524 1525 1525 1525 1526 1525 1525 1523 1522 1522 1521 1521 1521 1521 1521 1522 1522 1523 1524 1525 1525 1526 1527 1528 1528 1529 1531 1532 1533 1535 1537 1539 1542
1500 1494 1490 1496 1501 1501 1502 1505 1506 1507 1510 1512 1513 1517 1522 1526 1526 1527 1527 1528 1528 1528 1528 1526 1525 1525 1524 1524 1524 1523 1524 1524 1525 1526 1526 1527 1527 1528 1528 1530 1531 1532 1534 1535 1537 1539 1540 1542 1544
1497 1490 1494 1503 1505 1503 1505 1508 1508 1510 1512 1515 1516 1518 1525 1528 1528 1529 1530 1530 1530 1531 1530 1529 1528 1528 1527 1527 1527 1527 1527 1527 1528 1528 1529 1529 1529 1529 1529 1531 1534 1535 1537 1538 1540 1541 1543 1544 1546
1496 1490 1496 1500 1505 1506 1508 1510 1510 1512 1514 1517 1518 1520 1526 1529 1530 1531 1532 1532 1533 1533 1533 1533 1533 1531 1531 1530 1530 1530 1530 1530 1531 1531 1531 1530 1530 1530 1531 1533 1535 1537 1539 1540 1542 1543 1545 1546 1547
1497 1491 1495 1498 1503 1508 1510 1512 1514 1514 1518 1520 1520 1522 1526 1531 1532 1533 1533 1534 1534 1535 1535 1535 1535 1535 1535 1534 1533 1533 1533 1533 1533 1533 1533 1533 1532 1532 1533 1535 1537 1540 1541 1543 1544 1545 1547 1548 1549
1498 1493 1498 1499 1502 1507 1511 1513 1516 1518 1520 1522 1523 1525 1528 1531 1533 1534 1535 1536 1536 1536 1537 1538 1538 1538 1538 1538 1536 1536 1536 1536 1536 1536 1535 1535 1537 1537 1537 1539 1540 1542 1544 1545 1546 1547 1548 1549 1550
1496 1495 1500 1500 1501 1506 1511 1513 1517 1518 1520 1524 1527 1529 1531 1533 1534 1535 1536 1537 1538 1538 1539 1539 1540 1540 1540 1540 1540 1540 1540 1539 1539 1539 1539 1539 1539 1540 1541 1542 1543 1544 1545 1547 1547 1549 1550 1551 1553
1497 1498 1501 1503 1506 1508 1511 1515 1517 1517 1519 1524 1527 1531 1533 1534 1536 1537 1538 1539 1539 1540 1540 1541 1541 1541 1542 1542 1542 1542 1542 1541 1541 1541 1541 1541 1542 1543 1544 1545 1546 1547 1547 1549 1549 1551 1552 1553 1554
1499 1501 1504 1506 1509 1510 1512 1515 1518 1519 1523 1526 1529 1532 1534 1536 1537 1538 1540 1540 1541 1541 1542 1542 1542 1542 1542 1543 1544 1544 1544 1544 1545 1544 1544 1545 1545 1545 1546 1547 1548 1549 1549 1550 1551 1552 1553 1553 1554
1501 1504 1506 1509 1510 1512 1514 1516 1519 1522 1526 1528 1531 1533 1535 1537 1539 1540 1541 1542 1542 1543 1543 1543 1543 1543 1543 1543 1545 1546 1546 1547 1547 1546 1547 1547 1547 1548 1548 1548 1549 1550 1551 1551 1551 1552 1552 1553 1554
1502 1504 1507 1509 1512 1514 1515 1518 1520 1524 1527 1530 1532 1534 1536 1538 1540 1541 1542 1543 1543 1544 1544 1545 1544 1544 1544 1545 1545 1546 1547 1547 1548 1548 1548 1548 1549 1549 1550 1550 1550 1551 1551 1552 1552 1552 1553 1553 1554
1504 1504 1507 1509 1512 1514 1515 1518 1520 1525 1527 1530 1533 1535 1537 1539 1540 1542 1543 1543 1544 1545 1545 1545 1546 1546 1546 1547 1547 1548 1549 1550 1549 1549 1549 1549 1550 1550 1550 1551 1551 1552 1552 1552 1552 1552 1553 1553 1554
1501 1502 1506 1508 1510 1513 1514 1518 1519 1524 1527 1529 1532 1534 1537 1539 1540 1542 1543 1544 1545 1545 1545 1546 1548 1548 1548 1548 1548 1549 1550 1550 1551 1551 1551 1550 1550 1551 1551 1551 1552 1551 1552 1552 1552 1553 1553 1553 1553
1499 1502 1505 1508 1508 1510 1510 1514 1518 1523 1525 1527 1530 1533 1536 1538 1540 1541 1543 1544 1544 1545 1546 1546 1547 1548 1549 1549 1549 1550 1550 1551 1552 1552 1552 1551 1551 1551 1551 1551 1551 1551 1552 1552 1552 1552 1552 1552 1552
1500 1499 1503 1505 1506 1508 1509 1510 1515 1521 1523 1525 1528 1531 1534 1536 1538 1540 1542 1543 1544 1545 1545 1546 1547 1548 1549 1550 1550 1551 1551 1552 1552 1552 1552 1551 1552 1551 1551 1552 1551 1551 1552 1551 1551 1551 1551 1551 1551
1493 1498 1502 1503 1504 1507 1508 1509 1512 1517 1520 1523 1526 1529 1531 1534 1537 1539 1541 1542 1543 1544 1545 1546 1547 1548 1549 1550 1551 1552 1552 1553 1553 1553 1552 1552 1552 1552 1551 1552 1550 1551 1551 1550 1550 1550 1550 1550 1550
1494 1499 1501 1503 1504 1506 1507 1507 1507 1512 1516 1519 1523 1526 1529 1532 1535 1537 1539 1541 1542 1543 1544 1545 1546 1548 1549 1550 1550 1551 1552 1553 1553 1553 1552 1552 1552 1551 1552 1551 1551 1550 1550 1549 1549 1549 1549 1549 1549
1494 1496 1498 1503 1504 1504 1506 1507 1506 1509 1513 1517 1520 1523 1526 1529 1532 1535 1537 1539 1541 1542 1543 1545 1546 1547 1548 1549 1551 1551 1551 1552 1553 1552 1552 1552 1551 1551 1551 1550 1550 1549 1549 1549 1548 1548 1548 1548 1548
1497 1492 1496 1500 1505 1504 1505 1511 1503 1503 1508 1512 1516 1519 1522 1525 1529 1532 1535 1537 1539 1540 1542 1544 1545 1546 1547 1548 1550 1551 1551 1552 1552 1552 1552 1551 1551 1551 1551 1550 1549 1549 1549 1548 1548 1548 1547 1547 1547
1491 1493 1495 1498 1500 1502 1501 1506 1499 1498 1503 1504 1509 1513 1517 1521 1525 1529 1532 1534 1537 1539 1541 1542 1544 1545 1546 1547 1548 1549 1551 1551 1552 1551 1551 1550 1551 1550 1550 1549 1549 1548 1548 1547 1547 1546 1546 1546 1546
1492 1496 1498 1497 1497 1511 1502 1505 1502 1492 1495 1497 1502 1509 1514 1518 1522 1526 1529 1532 1535 1537 1539 1541 1542 1543 1545 1546 1547 1548 1549 1550 1550 1550 1551 1550 1550 1550 1549 1549 1548 1548 1547 1546 1546 1545 1545 1545 1545
1492 1498 1510 1513 1512 1508 1496 1502 1497 1486 1488 1493 1498 1504 1510 1515 1519 1523 1526 1529 1532 1534 1537 1539 1540 1542 1543 1545 1546 1547 1548 1549 1549 1550 1550 1550 1550 1550 1548 1549 1547 1547 1546 1546 1545 1545 1544 1544 1544
1488 1489 1504 1515 1511 1501 1499 1500 1488 1484 1489 1493 1497 1501 1507 1511 1515 1519 1523 1526 1529 1532 1534 1536 1538 1540 1542 1543 1545 1546 1546 1548 1549 1548 1549 1549 1549 1549 1548 1547 1547 1546 1546 1545 1544 1545 1544 1543 1543
1486 1486 1479 1490 1495 1500 1495 1491 1484 1484 1488 1492 1495 1499 1504 1508 1512 1516 1520 1523 1526 1529 1532 1534 1536 1538 1540 1542 1543 1544 1545 1546 1547 1547 1547 1548 1547 1548 1547 1546 1546 1546 1545 1544 1544 1544 1543 1543 1543
1478 1478 1485 1491 1507 1509 1499 1494 1487 1484 1485 1488 1492 1496 1501 1506 1510 1513 1517 1520 1524 1527 1530 1532 1534 1536 1538 1540 1542 1543 1544 1545 1545 1546 1546 1546 1546 1546 1546 1546 1545 1545 1544 1544 1543 1543 1542 1542 1542
1483 1484 1483 1485 1487 1500 1503 1492 1472 1478 1481 1484 1488 1494 1498 1502 1506 1511 1514 1518 1521 1525 1528 1530 1532 1535 1537 1539 1540 1542 1543 1543 1544 1545 1545 1545 1545 1545 1545 1545 1544 1544 1544 1543 1543 1543 1542 1542 1541
1472 1475 1480 1492 1495 1490 1490 1487 1471 1475 1479 1483 1487 1492 1496 1501 1504 1509 1512 1516 1519 1523 1526 1528 1530 1533 1535 1537 1538 1540 1541 1542 1543 1543 1544 1544 1544 1544 1544 1544 1543 1543 1543 1542 1542 1542 1541 1541 1540